Probability
0 0 0 0 0 0 0 0 0 0 0 0 0 0 0 0 0 0 0 1 5 7 7 5 4 4 3 2 1 0 0 0 0 0 0 0 0 0 0 0 0 0 0
0 0 0 0 0 0 0 0 0 0 0 0 0 0 0 0 0 0 0 1 6 11 11 9 6 4 3 3 1 0 0 0 0 0 0 0 0 0 0 0 0 0 0
1 1 1 0 0 0 0 0 0 0 0 0 0 0 0 0 0 0 0 1 4 9 14 16 14 9 5 4 2 1 1 1 0 0 0 0 0 0 0 0 0 0 0
4 4 3 2 2 1 1 0 0 0 0 0 0 0 0 0 0 0 0 0 1 3 9 18 23 18 11 8 5 3 3 2 1 0 0 0 0 0 0 0 0 0 0
13 10 7 5 4 2 1 0 0 0 0 0 0 0 0 0 0 0 0 0 0 0 3 12 20 19 15 13 10 8 6 3 1 1 0 0 0 0 0 0 0 0 0
27 22 18 14 10 7 3 1 1 0 0 0 0 0 0 0 0 0 0 0 0 0 1 4 8 10 10 12 13 11 8 4 3 2 1 0 0 0 0 0 0 0 0
41 38 33 25 18 13 7 3 3 1 0 0 0 0 0 0 0 0 0 0 0 0 1 1 1 2 3 6 9 10 8 6 5 4 1 0 0 0 0 0 0 0 0
48 47 40 29 22 17 11 6 4 3 1 1 0 0 0 0 0 0 0 0 0 0 0 0 0 0 0 1 2 4 6 7 7 5 2 0 0 0 0 0 0 0 0
41 40 36 27 21 18 13 8 5 3 2 1 0 0 0 0 0 0 0 0 0 0 0 0 0 0 0 0 0 1 2 4 5 5 3 1 0 0 0 0 0 0 0
28 29 29 25 21 16 11 7 5 3 1 0 0 0 0 0 0 0 0 0 0 0 0 0 0 0 0 0 0 0 0 1 1 2 2 2 0 0 0 0 0 0 0
20 23 24 21 17 12 8 5 4 2 0 0 0 0 0 0 0 0 0 0 0 0 0 0 0 0 0 0 0 0 0 0 0 0 1 1 0 0 0 0 0 0 0
18 19 18 15 10 7 4 2 2 2 0 0 0 0 0 0 0 0 0 0 0 0 0 0 0 0 0 0 0 0 0 0 0 0 0 0 0 0 0 0 0 0 0
16 15 13 9 6 3 1 0 1 1 0 0 0 0 0 0 0 0 0 0 0 0 0 0 0 0 0 0 0 0 0 0 0 0 0 0 0 0 0 0 0 0 0
12 10 7 5 3 2 0 0 0 0 0 0 0 0 0 0 0 0 0 0 0 0 0 0 0 0 0 0 0 0 0 0 0 0 0 0 0 0 0 0 0 0 0
5 3 2 1 1 1 0 0 0 0 0 0 0 0 0 0 0 0 0 0 0 0 0 0 0 0 0 0 0 0 0 0 0 0 0 0 0 0 0 0 0 0 0
1 0 0 0 0 0 0 0 0 0 0 0 0 0 0 0 0 0 0 0 0 0 0 0 0 0 0 0 0 0 0 0 0 0 0 0 0 0 0 0 0 0 0
0 0 0 0 0 0 0 0 0 0 0 0 0 0 0 0 0 0 0 0 0 0 0 0 0 0 0 0 0 0 0 0 0 0 0 0 0 0 0 0 0 0 0
0 0 0 0 0 0 0 0 0 0 0 0 0 0 0 0 0 0 0 0 0 0 0 0 0 0 0 0 0 0 0 0 0 0 0 0 0 0 0 0 0 0 0
0 0 0 0 0 0 0 0 0 0 0 0 0 0 0 0 0 0 0 0 0 0 0 0 0 0 0 0 0 0 0 0 0 0 0 0 0 0 0 0 0 0 0
0 0 0 0 0 0 0 0 0 0 0 0 0 0 0 0 0 0 0 0 0 0 0 0 0 0 0 0 0 0 0 0 0 0 0 0 0 0 0 0 0 0 0
0 0 0 0 0 0 0 0 0 0 0 0 0 0 0 0 0 0 0 0 0 0 0 0 0 0 0 0 0 0 0 0 0 0 0 0 0 0 0 0 0 0 0
0 0 0 0 0 0 0 0 0 0 0 0 0 0 0 0 0 0 0 0 0 0 0 0 0 0 0 0 0 0 0 0 0 0 0 0 0 0 0 0 0 0 0
0 0 0 0 0 0 0 0 0 0 0 0 0 0 0 0 0 0 0 0 0 0 0 0 0 0 0 0 0 0 0 0 0 0 0 0 0 0 0 0 0 0 0
0 0 0 0 0 0 0 0 0 0 0 0 0 0 0 0 0 0 0 0 0 0 0 0 0 0 0 0 0 0 0 0 0 0 0 0 0 0 0 0 0 0 0
0 0 0 0 0 0 0 0 0 0 0 0 0 0 0 0 0 0 0 0 0 0 0 0 0 0 0 0 0 0 0 0 0 0 0 0 0 0 0 0 0 0 0
0 0 0 0 0 0 0 0 0 0 0 0 0 0 0 0 0 0 0 0 0 0 0 0 0 0 0 0 0 0 0 0 0 0 0 0 0 0 0 0 0 0 0
Wind_Speed
5 4 4 4 4 3 4 4 5 5 6 6 6 7 7 8 8 7 5 12 13 13 13 13 13 14 14 13 14 14 15 16 15 16 18 20 20 20 19 19 18 17 16
5 4 4 4 4 4 4 5 5 5 4 4 5 5 6 6 6 7 6 7 12 13 13 14 14 14 15 14 14 14 14 15 14 14 16 18 20 20 20 20 20 19 17
5 5 4 3 3 3 4 3 4 3 3 4 5 5 5 5 5 6 6 5 6 10 14 15 15 15 15 15 15 14 14 14 14 14 15 17 19 20 21 21 21 20 19
6 5 4 3 3 2 2 2 2 2 3 3 3 4 4 4 5 6 5 5 5 5 9 14 15 15 15 16 16 16 14 14 14 14 15 16 18 20 21 22 22 21 20
6 5 4 3 3 2 2 2 2 2 3 3 4 4 4 4 5 6 6 7 7 6 6 9 13 14 15 16 16 16 16 15 14 15 15 16 17 19 21 23 23 22 22
6 5 4 4 3 2 2 2 2 2 3 3 4 5 5 5 5 5 7 6 6 7 7 7 6 8 13 14 15 15 16 16 14 15 16 16 17 17 20 23 23 24 23
5 5 3 4 3 3 3 3 2 3 3 2 2 4 4 5 5 5 4 4 5 6 6 7 5 5 5 10 12 13 14 15 14 14 15 15 15 16 19 23 24 25 24
5 5 5 4 3 3 3 3 3 2 2 2 2 1 4 5 3 3 2 3 4 4 5 6 5 5 5 4 5 9 11 13 14 14 14 14 14 15 18 23 25 25 25
4 4 5 4 4 3 3 4 3 4 3 3 3 3 2 3 4 4 3 2 3 3 4 4 5 5 5 4 3 5 8 10 13 14 14 14 14 15 18 22 26 26 26
4 4 4 4 3 3 3 4 4 3 3 3 3 3 4 3 2 4 4 3 3 3 4 4 5 5 4 3 3 4 7 9 11 13 13 13 13 15 18 22 26 28 27
3 3 3 3 3 2 3 3 3 3 3 4 3 2 2 2 3 3 5 5 4 3 3 4 5 4 4 3 2 2 5 7 9 11 11 12 13 16 19 23 27 28 28
1 1 2 2 2 2 3 3 3 4 4 4 3 3 2 2 2 2 4 5 5 5 4 4 4 4 3 3 2 1 3 6 8 9 9 9 11 15 19 23 26 28 28
1 0 1 1 1 2 2 3 3 4 4 4 4 3 3 3 2 2 4 4 4 4 4 3 3 3 3 3 2 1 2 5 6 7 5 4 8 13 18 22 25 27 27
2 1 2 1 1 1 2 2 2 3 2 3 4 3 3 3 2 3 3 3 4 4 3 5 3 3 3 3 3 3 1 3 4 6 4 3 7 11 16 19 22 25 25
2 3 3 2 2 2 2 2 1 3 3 3 3 3 3 3 2 3 3 3 3 4 4 4 3 2 2 2 4 2 2 3 5 6 7 8 10 14 16 18 19 19 19
3 3 3 3 3 3 3 2 2 3 3 3 2 3 2 2 2 2 3 3 3 4 4 3 3 3 4 4 5 3 3 5 5 6 8 10 12 14 15 16 16 16 16
3 3 3 3 4 4 4 4 3 3 3 3 3 3 3 3 3 3 3 3 3 3 5 5 3 3 5 5 4 3 3 3 3 6 7 9 10 12 13 14 14 14 14
3 3 4 4 5 5 5 5 4 4 3 3 3 3 4 4 4 4 3 4 4 4 4 6 4 3 5 5 5 5 4 4 3 6 8 9 10 11 11 12 12 13 12
4 4 4 5 5 5 5 5 4 4 4 3 3 3 3 4 4 4 5 4 4 5 4 4 4 3 3 3 4 4 4 3 5 7 9 9 10 11 11 11 11 12 11
4 4 4 5 5 5 5 5 5 5 5 4 4 3 3 3 4 5 5 5 5 6 5 4 4 2 2 2 4 4 4 3 4 5 7 8 10 11 12 12 12 12 12
4 4 5 4 4 4 4 5 5 5 5 5 5 4 3 6 7 5 4 5 5 4 5 4 3 2 1 1 3 3 4 3 3 2 4 5 5 6 7 10 12 13 13
4 5 5 5 5 4 6 7 5 3 4 4 4 5 4 6 9 9 8 6 5 4 5 4 3 3 3 2 2 3 4 4 3 3 3 3 4 5 6 6 11 14 14
4 4 4 4 4 5 7 8 7 3 3 3 4 4 5 6 8 6 8 8 7 8 6 3 4 4 4 3 2 3 4 4 4 3 3 3 3 3 3 4 10 12 13
3 3 3 4 4 5 9 8 6 4 4 4 4 4 4 6 8 7 6 7 7 6 6 4 2 4 4 5 3 3 3 3 2 1 3 3 3 2 2 2 4 7 8
3 3 3 4 4 5 9 9 7 3 3 3 3 4 5 5 10 10 7 7 8 7 7 8 6 6 7 8 5 2 1 2 2 1 1 3 3 3 2 2 2 4 5
3 3 3 3 4 4 7 9 7 3 3 2 3 4 7 8 10 10 6 5 7 7 8 8 7 7 6 7 8 4 1 1 1 1 1 2 3 3 3 2 2 2 2
Wind_Direction
206 204 200 197 204 210 221 229 238 245 249 251 250 250 248 243 241 239 243 248 244 239 238 239 241 244 247 248 251 253 255 255 249 239 231 225 219 213 205 198 195 192 189
190 182 183 187 200 207 216 222 229 238 247 251 258 258 255 249 244 243 239 246 245 238 236 240 243 247 250 252 253 254 256 259 256 247 238 230 222 214 206 199 195 192 189
182 175 176 186 200 205 212 224 240 244 251 255 265 273 272 265 261 257 252 239 241 241 239 240 243 246 249 253 257 258 257 257 255 250 244 235 225 215 206 200 195 191 188
180 172 176 195 205 202 208 222 237 246 260 267 273 277 276 276 274 267 261 249 239 241 245 244 243 244 246 251 256 260 260 259 255 251 245 238 229 218 207 200 194 189 186
182 172 179 193 192 191 214 234 228 226 250 267 272 270 272 272 271 276 267 258 247 238 237 244 242 242 243 248 254 259 262 263 259 254 249 243 233 221 208 199 193 187 184
183 174 179 189 184 186 218 227 235 237 239 251 274 282 277 271 264 257 256 256 249 243 239 237 238 244 244 247 251 257 263 267 264 258 252 247 238 221 208 197 190 186 183
181 178 181 188 191 198 215 221 221 242 253 242 276 298 291 274 265 260 254 248 249 251 248 239 233 233 245 248 250 256 266 274 273 264 255 248 239 221 206 196 189 184 180
181 183 184 192 198 205 227 233 220 232 254 223 203 276 312 320 311 290 289 265 257 261 262 255 239 231 231 235 246 259 271 279 280 271 258 245 235 218 204 195 187 181 177
186 182 186 190 200 202 223 236 231 224 244 256 209 194 221 267 308 306 304 296 291 280 273 280 263 243 229 223 235 260 279 286 285 279 266 248 230 213 200 194 186 178 174
189 189 188 193 204 212 229 242 240 230 230 253 257 226 210 201 240 303 308 305 305 275 266 269 268 256 230 215 224 258 290 295 293 284 271 254 231 208 196 191 184 176 173
185 184 185 191 207 222 239 253 261 250 236 238 240 247 249 230 213 229 287 303 310 289 275 264 253 244 218 206 215 266 302 306 303 295 278 256 229 205 194 189 181 174 172
178 191 182 189 208 233 254 262 262 262 255 251 249 239 228 233 238 229 263 287 293 289 284 266 250 228 205 196 203 251 326 323 317 309 287 252 219 198 189 183 177 172 170
126 185 145 180 222 255 269 273 274 274 267 262 259 252 240 236 231 235 252 271 283 294 291 279 253 215 195 183 189 165 3 344 337 332 316 236 194 182 177 175 172 168 167
109 86 78 66 358 321 310 306 293 285 284 281 279 277 272 269 258 241 238 259 285 289 282 276 278 225 196 183 182 154 58 26 19 17 25 114 146 155 159 161 161 162 165
98 79 71 52 18 356 339 341 326 315 319 304 295 295 285 279 277 267 254 233 240 276 285 269 266 241 201 185 177 153 129 89 70 61 66 93 118 128 135 142 149 156 161
74 69 48 30 17 14 13 10 338 332 343 332 321 327 324 311 312 307 296 276 240 242 267 266 255 238 204 197 182 159 143 124 105 96 93 101 113 123 131 138 144 151 161
71 64 50 43 42 36 29 25 4 6 6 356 357 3 355 348 348 335 324 312 290 265 267 271 248 234 200 193 174 164 145 142 136 134 126 124 126 132 139 145 152 161 170
68 68 64 59 51 45 37 30 12 6 8 6 358 5 2 1 354 337 330 319 307 285 267 277 267 228 212 197 179 175 169 174 165 173 164 156 154 155 157 162 169 175 180
61 59 66 67 60 49 35 19 14 12 17 13 12 20 6 5 349 334 329 327 317 310 287 274 272 238 216 181 169 182 183 175 185 184 185 183 179 177 178 182 186 190 194
69 60 73 84 77 55 34 19 17 17 12 7 11 19 10 359 335 324 322 323 321 318 311 298 281 262 226 183 169 177 179 187 195 184 184 188 192 193 195 195 199 203 206
78 78 84 78 64 54 29 22 15 19 17 12 11 10 11 5 345 329 316 314 322 322 325 322 316 320 309 181 198 188 186 170 193 178 164 180 180 194 203 208 210 212 214
76 78 82 79 57 38 22 33 33 29 24 26 16 4 357 7 351 350 351 353 351 340 334 336 333 335 326 288 238 194 173 168 198 194 160 176 169 188 198 201 210 212 216
85 86 88 87 69 28 26 26 33 57 44 35 28 18 13 6 1 354 354 1 2 2 7 346 345 336 322 310 286 217 197 185 183 171 146 158 159 173 178 191 197 206 214
89 94 92 91 74 33 25 25 35 63 62 48 37 28 22 7 6 4 4 2 351 345 340 347 319 304 305 302 283 251 208 156 106 127 146 150 153 151 143 137 172 191 203
84 85 92 91 78 32 25 30 39 57 59 46 33 29 22 11 2 15 19 3 354 346 343 339 323 319 331 349 359 29 85 134 143 164 153 142 146 140 141 158 169 178 184
105 95 84 80 79 53 32 37 41 50 50 21 3 7 15 12 8 18 21 8 356 334 337 347 352 351 352 356 10 24 37 104 118 165 173 152 151 150 161 168 174 178 187